GW5690 Weather Reports


Display with metric or nautical units.
time (UTC)temp
F
wind
direction
speed
MPH
gust
MPH
rain 1hr
in
rain 24hr
in
rain mn
in
humidity
%
barometer
mb
20260906124505 108 253 2.0 8.0 0.00 0.00 0.00 22 1005.0
20260906123603 106 218 3.0 11.0 0.00 0.00 0.00 22 1005.4
20260906122702 108 190 4.0 11.0 0.00 0.00 0.00 20 1005.2
20260906121802 106 219 3.0 11.0 0.00 0.00 0.00 20 1005.4
20260906120903 107 224 2.0 8.0 0.00 0.00 0.00 22 1005.5
20260906120003 107 248 2.0 8.0 0.00 0.00 0.00 21 1005.3
20260906115403 108 235 2.0 8.0 0.00 0.00 0.00 21 1005.6
20260906114503 106 4 2.0 9.0 0.00 0.00 0.00 21 1005.7
20260906113605 107 215 2.0 9.0 0.00 0.00 0.00 21 1005.8
20260906112703 107 329 1.0 9.0 0.00 0.00 0.00 21 1005.7
20260906111806 106 118 4.0 11.0 0.00 0.00 0.00 21 1006.0
20260906110904 107 126 4.0 11.0 0.00 0.00 0.00 21 1005.9
20260906110004 107 91 2.0 9.0 0.00 0.00 0.00 21 1006.2
20260906105425 107 115 2.0 8.0 0.00 0.00 0.00 21 1006.1
20260906104503 106 67 3.0 14.0 0.00 0.00 0.00 21 1006.6
20260906103604 106 92 3.0 9.0 0.00 0.00 0.00 21 1006.3
20260906102704 106 124 3.0 10.0 0.00 0.00 0.00 21 1006.6
20260906101803 108 81 2.0 9.0 0.00 0.00 0.00 21 1006.4
20260906100903 106 119 4.0 10.0 0.00 0.00 0.00 20 1006.8
20260906100005 108 68 2.0 9.0 0.00 0.00 0.00 20 1006.8
20260906095405 107 220 3.0 9.0 0.00 0.00 0.00 20 1006.9
20260906094504 108 233 2.0 11.0 0.00 0.00 0.00 22 1006.7
20260906093605 106 232 4.0 11.0 0.00 0.00 0.00 22 1007.0
20260906092703 107 342 3.0 10.0 0.00 0.00 0.00 22 1007.1
20260906091802 107 83 3.0 10.0 0.00 0.00 0.00 22 1007.1
20260906090903 106 90 2.0 6.0 0.00 0.00 0.00 23 1007.4
20260906090004 105 120 3.0 8.0 0.00 0.00 0.00 25 1007.3
20260906085425 105 121 3.0 8.0 0.00 0.00 0.00 25 1007.4
20260906084525 104 80 2.0 6.0 0.00 0.00 0.00 26 1007.6
20260906083605 104 322 2.0 4.0 0.00 0.00 0.00 26 1007.5
20260906082703 102 302 2.0 6.0 0.00 0.00 0.00 26 1007.7
20260906081805 101 254 3.0 8.0 0.00 0.00 0.00 27 1008.1
20260906080903 100 254 3.0 6.0 0.00 0.00 0.00 27 1008.1
20260906080004 99 264 3.0 7.0 0.00 0.00 0.00 28 1008.3
20260906075403 99 261 4.0 7.0 0.00 0.00 0.00 27 1008.3
20260906074503 97 253 4.0 9.0 0.00 0.00 0.00 29 1008.6
20260906073603 97 238 5.0 9.0 0.00 0.00 0.00 31 1008.9
20260906072725 97 252 5.0 10.0 0.00 0.00 0.00 31 1008.8
20260906071804 97 260 4.0 8.0 0.00 0.00 0.00 30 1008.8
20260906070904 96 264 3.0 6.0 0.00 0.00 0.00 30 1009.0
20260906070003 95 296 2.0 4.0 0.00 0.00 0.00 30 1009.0
20260906065424 95 67 2.0 4.0 0.00 0.00 0.00 30 1008.9
20260906064506 94 85 2.0 4.0 0.00 0.00 0.00 31 1009.0
20260906063624 92 63 3.0 6.0 0.00 0.00 0.00 32 1008.9
20260906062703 91 88 3.0 6.0 0.00 0.00 0.00 32 1009.0
20260906061805 91 69 3.0 4.0 0.00 0.00 0.00 33 1009.2
20260906060903 92 67 2.0 3.0 0.00 0.00 0.00 33 1009.4
20260906060003 91 74 2.0 3.0 0.00 0.00 0.00 33 1009.6
20260906055404 91 56 1.0 3.0 0.00 0.00 0.00 32 1009.4
20260906054503 90 36 1.0 3.0 0.00 0.00 0.00 33 1009.6
20260906053603 89 26 2.0 4.0 0.00 0.00 0.00 34 1009.7
20260906052724 88 346 2.0 4.0 0.00 0.00 0.00 36 1009.4
20260906051804 86 325 1.0 3.0 0.00 0.00 0.00 38 1009.7
20260906050903 83 312 2.0 3.0 0.00 0.00 0.00 42 1009.8
20260906050005 84 314 1.0 3.0 0.00 0.00 0.00 42 1009.7
20260906045424 84 312 1.0 2.0 0.00 0.00 0.00 42 1009.5
20260906044504 83 307 2.0 3.0 0.00 0.00 0.00 43 1009.8
20260906043604 82 314 2.0 3.0 0.00 0.00 0.00 43 1009.8
20260906042704 82 321 1.0 2.0 0.00 0.00 0.00 43 1009.8
20260906041804 80 312 2.0 4.0 0.00 0.00 0.00 44 1009.7
20260906040904 80 315 2.0 4.0 0.00 0.00 0.00 45 1009.8
20260906032703 79 311 3.0 6.0 0.00 0.00 0.00 45 1009.5
20260906031804 80 309 2.0 6.0 0.00 0.00 0.00 47 1009.4
20260906030924 81 318 1.0 2.0 0.00 0.00 0.00 44 1009.1
20260906030003 80 319 1.0 2.0 0.00 0.00 0.00 43 1009.2
20260906025403 80 331 0.0 4.0 0.00 0.00 0.00 42 1009.1
20260906024503 81 319 3.0 6.0 0.00 0.00 0.00 43 1009.0
20260906023604 82 10 0.0 1.0 0.00 0.00 0.00 37 1008.7
20260906022704 81 324 1.0 2.0 0.00 0.00 0.00 37 1008.5
20260906021803 82 338 1.0 2.0 0.00 0.00 0.00 37 1008.6
20260906020904 82 50 2.0 7.0 0.00 0.00 0.00 36 1008.5
20260906020004 82 86 5.0 8.0 0.00 0.00 0.00 36 1008.5
20260906015404 83 93 5.0 8.0 0.00 0.00 0.00 35 1008.4
20260906014506 83 83 3.0 4.0 0.00 0.00 0.00 37 1008.5
20260906013604 84 74 2.0 6.0 0.00 0.00 0.00 36 1008.4
20260906012703 84 89 5.0 7.0 0.00 0.00 0.00 35 1008.3
20260906011805 83 88 4.0 7.0 0.00 0.00 0.00 36 1008.3
20260906010925 83 82 3.0 4.0 0.00 0.00 0.00 37 1008.4
20260906010003 84 57 2.0 3.0 0.00 0.00 0.00 39 1008.3
20260906005424 84 51 2.0 3.0 0.00 0.00 0.00 39 1008.6
20260906004503 83 353 0.0 2.0 0.00 0.00 0.00 39 1008.6
20260906003624 83 0 0.0 1.0 0.00 0.00 0.00 41 1008.4
20260906002703 84 316 0.0 2.0 0.00 0.00 0.00 41 1008.6
20260906001803 83 315 1.0 3.0 0.00 0.00 0.00 41 1008.5
20260906000903 84 316 0.0 1.0 0.00 0.00 0.00 39 1008.6
20260906000005 84 315 1.0 3.0 0.00 0.00 0.00 39 1008.6
20260905235405 85 311 1.0 3.0 0.00 0.00 0.00 40 1008.3
20260905234524 86 35 0.0 2.0 0.00 0.00 0.00 37 1008.4
20260905233604 86 354 0.0 1.0 0.00 0.00 0.00 37 1008.6
20260905232703 87 355 0.0 1.0 0.00 0.00 0.00 36 1008.3
20260905231806 86 14 1.0 4.0 0.00 0.00 0.00 35 1008.2
20260905230904 87 61 4.0 6.0 0.00 0.00 0.00 34 1008.3
20260905230005 87 43 3.0 4.0 0.00 0.00 0.00 35 1008.3
20260905225403 86 28 1.0 2.0 0.00 0.00 0.00 36 1008.5
20260905224504 86 334 0.0 1.0 0.00 0.00 0.00 36 1008.5
20260905223624 86 338 0.0 1.0 0.00 0.00 0.00 37 1008.6
20260905222704 85 0 0.0 0.0 0.00 0.00 0.00 37 1008.6
20260905221804 86 294 0.0 2.0 0.00 0.00 0.00 38 1008.5
20260905220904 87 277 0.0 2.0 0.00 0.00 0.00 38 1008.6
20260905220003 88 0 0.0 0.0 0.00 0.00 0.00 35 1008.6
20260905215404 88 0 0.0 0.0 0.00 0.00 0.00 34 1008.6
20260905214525 88 0 0.0 0.0 0.00 0.00 0.00 34 1008.6
20260905213627 87 0 0.0 0.0 0.00 0.00 0.00 34 1008.7
20260905212705 87 11 1.0 4.0 0.00 0.00 0.00 34 1008.7
20260905211803 88 64 4.0 7.0 0.00 0.00 0.00 34 1008.7
20260905210903 90 49 4.0 7.0 0.00 0.00 0.00 33 1008.6
20260905210004 90 54 4.0 7.0 0.00 0.00 0.00 33 1008.6
20260905205404 90 45 4.0 7.0 0.00 0.00 0.00 32 1008.5
20260905194505 92 316 3.0 6.0 0.00 0.00 0.00 31 1008.9
20260905191805 93 325 1.0 3.0 0.00 0.00 0.00 30 1008.7
20260905190905 93 328 1.0 3.0 0.00 0.00 0.00 31 1008.8
20260905190004 94 340 1.0 2.0 0.00 0.00 0.00 32 1008.7
20260905185404 93 350 0.0 2.0 0.00 0.00 0.00 32 1008.5
20260905184505 94 355 0.0 2.0 0.00 0.00 0.00 32 1008.8
20260905183604 94 357 0.0 2.0 0.00 0.00 0.00 31 1008.6
20260905182703 94 322 1.0 3.0 0.00 0.00 0.00 31 1008.8
20260905181804 94 327 1.0 3.0 0.00 0.00 0.00 30 1008.6
20260905180907 94 340 1.0 2.0 0.00 0.00 0.00 30 1008.6
20260905180003 94 323 2.0 4.0 0.00 0.00 0.00 31 1008.8
20260905175405 95 322 2.0 4.0 0.00 0.00 0.00 31 1008.8
20260905174504 95 327 1.0 3.0 0.00 0.00 0.00 31 1008.8
20260905173624 96 318 0.0 1.0 0.00 0.00 0.00 31 1008.8
20260905172703 96 317 0.0 1.0 0.00 0.00 0.00 30 1008.6
20260905171824 97 317 1.0 2.0 0.00 0.00 0.00 30 1008.5
20260905170904 97 315 2.0 3.0 0.00 0.00 0.00 30 1008.7
20260905170004 97 319 2.0 3.0 0.00 0.00 0.00 30 1008.4
20260905165403 98 325 1.0 2.0 0.00 0.00 0.00 31 1008.1
20260905164503 99 325 0.0 2.0 0.00 0.00 0.00 27 1008.0
20260905163604 101 357 1.0 2.0 0.00 0.00 0.00 26 1007.9
20260905162723 101 2 1.0 2.0 0.00 0.00 0.00 24 1007.8
20260905161803 102 8 1.0 2.0 0.00 0.00 0.00 24 1007.6
20260905160923 102 8 1.0 3.0 0.00 0.00 0.00 24 1007.5
20260905160023 103 8 1.0 3.0 0.00 0.00 0.00 24 1007.5
20260905155403 103 10 1.0 3.0 0.00 0.00 0.00 24 1007.5
20260905154523 103 4 2.0 4.0 0.00 0.00 0.00 24 1007.3
20260905153602 103 4 2.0 4.0 0.00 0.00 0.00 24 1007.2
20260905152701 103 3 2.0 6.0 0.00 0.00 0.00 24 1007.2
20260905151803 103 6 3.0 6.0 0.00 0.00 0.00 23 1007.1
20260905150923 104 357 4.0 7.0 0.00 0.00 0.00 23 1007.0
20260905150023 104 360 4.0 8.0 0.00 0.00 0.00 23 1007.2
20260905145422 105 14 5.0 10.0 0.00 0.00 0.00 23 1007.1
20260905144503 105 5 4.0 10.0 0.00 0.00 0.00 23 1007.2
20260905143603 105 357 5.0 10.0 0.00 0.00 0.00 23 1007.1
20260905142702 105 347 6.0 10.0 0.00 0.00 0.00 22 1007.0
20260905141802 105 342 5.0 10.0 0.00 0.00 0.00 22 1007.0
20260905140902 106 343 4.0 9.0 0.00 0.00 0.00 22 1007.2
20260905140002 106 8 5.0 10.0 0.00 0.00 0.00 22 1006.9
20260905135402 106 355 6.0 16.0 0.00 0.00 0.00 22 1006.8
20260905134523 106 313 4.0 10.0 0.00 0.00 0.00 22 1006.9
20260905133602 106 340 6.0 15.0 0.00 0.00 0.00 22 1006.8
20260905132723 106 10 4.0 10.0 0.00 0.00 0.00 22 1006.9
20260905131805 107 313 5.0 13.0 0.00 0.00 0.00 22 1006.8
20260905130902 106 318 4.0 11.0 0.00 0.00 0.00 22 1007.1
20260905130002 106 320 4.0 11.0 0.00 0.00 0.00 22 1007.0
20260905125404 106 312 4.0 11.0 0.00 0.00 0.00 22 1007.1